Location: San Gennaro Vesuviano
(40.8833°N, 14.5333°E)
Time: 10:04:20
(UTC+00:00)

COSMOS 2406 - Pass Details

Date: 22 April 2021
Orbit: 845 x 862 km, 71.0° (Epoch: 10 May)

Event Time Altitude Azimuth Distance (km) Brightness Sun altitude
Rises 23:38:16 0° 341° (NNW) 3,415 7.1 -35.9°
Reaches altitude 10° 23:40:50 10° 348° (NNW) 2,475 6.3 -35.8°
Enters shadow 23:44:53 38° 23° (NNE) 1,268 4.4 -35.6°
